EW6959 Weather Reports


Display with metric or nautical units.
time (UTC)temp
F
wind
direction
speed
MPH
gust
MPH
rain 1hr
in
rain 24hr
in
rain mn
in
humidity
%
barometer
mb
20260503183030 74 346 0.0 4.0 0.00 0.00 0.00 59 1013.0
20260503181524 73 355 0.0 4.0 0.00 0.00 0.00 63 1013.1
20260503180021 71 360 0.0 4.0 0.00 0.00 0.00 64 1013.2
20260503174516 69 352 0.0 2.0 0.00 0.00 0.00 67 1013.2
20260503173014 68 354 1.0 4.0 0.00 0.00 0.00 69 1013.3
20260503171510 67 359 0.0 1.0 0.00 0.00 0.00 73 1013.3
20260503081501 57 331 0.0 0.0 0.00 0.00 0.00 80 1014.0
20260503071557 58 331 0.0 0.0 0.00 0.00 0.00 76 1014.2
20260503054549 62 331 0.0 0.0 0.00 0.00 0.00 70 1013.9
20260503053049 63 331 0.0 0.0 0.00 0.00 0.00 69 1013.9
20260503051549 63 331 0.0 0.0 0.00 0.00 0.00 68 1013.8
20260503050048 64 331 0.0 0.0 0.00 0.00 0.00 67 1013.8
20260503044551 64 331 0.0 0.0 0.00 0.00 0.00 66 1013.7
20260503043047 65 331 0.0 0.0 0.00 0.00 0.00 65 1013.5
20260503041546 65 331 0.0 2.0 0.00 0.00 0.00 64 1013.3
20260503040045 66 345 0.0 3.0 0.00 0.00 0.00 63 1013.1
20260503034548 67 342 0.0 0.0 0.00 0.00 0.00 63 1012.8
20260503033046 68 342 0.0 0.0 0.00 0.00 0.00 61 1012.6
20260503031554 69 342 0.0 0.0 0.00 0.00 0.00 60 1012.4
20260503030047 70 342 0.0 2.0 0.00 0.00 0.00 58 1012.3
20260503024546 71 342 1.0 3.0 0.00 0.00 0.00 56 1012.2
20260503023042 72 354 0.0 3.0 0.00 0.00 0.00 56 1012.2
20260503021546 73 354 0.0 3.0 0.00 0.00 0.00 54 1012.2
20260503020046 74 348 0.0 2.0 0.00 0.00 0.00 54 1012.2
20260503014541 75 347 0.0 5.0 0.00 0.00 0.00 52 1012.2
20260503013043 76 356 1.0 4.0 0.00 0.00 0.00 50 1012.1
20260503011543 77 348 0.0 4.0 0.00 0.00 0.00 49 1012.2
20260503010039 78 359 0.0 3.0 0.00 0.00 0.00 49 1012.2
20260503004534 78 351 0.0 3.0 0.00 0.00 0.00 49 1012.4
20260503003034 78 330 0.0 5.0 0.00 0.00 0.00 50 1012.4
20260503001532 79 3 0.0 4.0 0.00 0.00 0.00 50 1012.5
20260503000043 79 360 0.0 3.0 0.00 0.00 0.00 52 1012.6
20260502234531 80 2 0.0 4.0 0.00 0.00 0.00 51 1012.7
20260502233029 80 353 0.0 3.0 0.00 0.00 0.00 51 1012.9
20260502231525 80 359 0.0 4.0 0.00 0.00 0.00 52 1013.1
20260502230022 80 6 0.0 4.0 0.00 0.00 0.00 52 1013.3
20260502224518 79 325 0.0 4.0 0.00 0.00 0.00 54 1013.5
20260502223015 78 339 0.0 3.0 0.00 0.00 0.00 56 1013.7
20260502221511 77 15 0.0 3.0 0.00 0.00 0.00 56 1013.9
20260502220009 77 354 0.0 0.0 0.00 0.00 0.00 54 1014.0
20260502214506 77 348 0.0 4.0 0.00 0.00 0.00 55 1014.2
20260502213005 76 359 0.0 3.0 0.00 0.00 0.00 56 1014.2
20260502211502 76 36 0.0 5.0 0.00 0.00 0.00 57 1014.4
20260502210058 75 359 0.0 2.0 0.00 0.00 0.00 59 1014.6
20260502204555 74 337 0.0 4.0 0.00 0.00 0.00 61 1014.8
20260502203052 72 347 1.0 6.0 0.00 0.00 0.00 62 1014.8
20260502201547 71 353 0.0 4.0 0.00 0.00 0.00 63 1015.0
20260502200043 70 345 1.0 5.0 0.00 0.00 0.00 65 1015.1
20260502194541 69 17 0.0 4.0 0.00 0.00 0.00 63 1015.2
20260502193043 69 341 0.0 4.0 0.00 0.00 0.00 67 1015.5
20260502191535 68 356 0.0 2.0 0.00 0.00 0.00 66 1015.7
20260502190030 66 355 0.0 3.0 0.00 0.00 0.00 69 1015.8
20260502184526 65 68 0.0 5.0 0.00 0.00 0.00 71 1016.1